FENGYUN 1C DEB

Satellite information

Favourite Embed

Satellite Type and Status

DEBRISIN ORBIT

Key statistics

Satellite FENGYUN 1C DEB at a glance.

Uptime

9714

Days in orbit

Revolutions

≈ 14.5

Per day

Orbit

SSO

Sun Synchronous Orbit

Inclination

98.8

Latest

Satellite identification and parameters

Extended collection of information and parameters for FENGYUN 1C DEB.

Object identification

Identified? True

Debris? True

Object name: FENGYUN 1C DEB

International designator: 1999-025BCQ

Object number (NORAD): 30998

Object ID (CCSDS): 30998

Country: PEOPLES REPUBLIC OF CHINA (PRC)

Current information (Y/N): Y

RCS size: SMALL

Orbital parameters

Period: 99.458 minutes

Inclination: 98.8279 deg

SMA: 7110.802 km

Apoapsis: 741.768 km

Periapsis: 723.567 km

RAAN: 68.6185 deg

Eccentricy: 0.0012798

Argument of periapsis: 197.4011 deg

Mean anomaly: 226.8043 deg

Mean motion: 14.47854327 rev/day

Mean motion (dot): 0.00014509 rev/day2

B* drag term: 0.0039197871 1/REarth

Two-line elements (TLE)

Creation date: Dec. 11, 2025, 10:54 a.m.

Reference frame: TEME

Reference center: EARTH

Epoch: Dec. 11, 2025, 4:53 a.m. UTC

TLE line 0: 0 FENGYUN 1C DEB

TLE line 1: 1 30998U 99025BCQ 25345.20410492 .00014509 00000-0 39198-2 0 9996

TLE line 2: 2 30998 98.8279 68.6185 0012798 197.4011 226.8043 14.47854327971689

Live tracking on map

Real-time ground track for satellite FENGYUN 1C DEB.

In-orbit conjunctions

A list of the most updated potential collisions computed for object FENGYUN 1C DEB.

Target Orbit TCA Probability of collision Miss distance Type
CZ-6A DEB LEO 2025-03-02 06:53:18 0.000247682 298.0 (m) DEBRIS
IRIDIUM 914 LEO 2024-12-15 13:52:33 0.0001257845 102.0 (m) PAYLOAD
FENGYUN 1C DEB SSO 2024-11-14 02:15:23 0.000472623 138.0 (m) DEBRIS
IRIDIUM 28 LEO 2024-10-14 09:25:34 0.0006793494 69.0 (m) PAYLOAD

Associated space launch

Chinese polar orbiting meteorological satellite

FENGYUN 1C DEB was lifted into orbit during the mission ‘Long March 4B | Feng Yun 1C’, on board a Long March 4B space rocket.

The launch took place on May 10, 1999, 1:33 a.m. from Launch Complex 7.

For more information about the launch, click the button.

Launch to space Long March 4B | Feng Yun 1C
Long March 4B | Feng Yun 1C

Agency: N/A

Status: Launch Successful

Launch date: May 10, 1999, 1:33 a.m. UTC

Rocket: Long March 4B

Launch pad: Launch Complex 7

Location: Taiyuan Satellite Launch Center, People's Republic of China

...

Latest news about this satellite

There are no fresh news available about this satellite. Check back as we update our databases every day.


Newsletter sign-up

Weekly statistics, charts and insights to help you stay on top of the space industry.